TITAN 3C TRANSTAGE DEB, 39299

Orbit data source: Space-Track

TITAN 3C TRANSTAGE DEB, 39299 is space debris in GEO originally from a launch on Thu, 26 Sep 1968 UTC launched from the Air Force Eastern Test Range (AFETR). Debris objects in space refer to the collection of defunct objects orbiting the Earth. Examples of debris include non-operational satellites, rocket bodies, and fragments generated from explosions, collisions, or faulty payload assembly.

Not visible in the next 10 days
Identifier
39299, 1968-081AK
Orbit
GEO
Country
Flag of USUS
Related business
Manufacturer
Unknown
Mission
Spacecraft
Bus & Motor
Unknown
Mass
Unknown
Launch date (UTC)
1968-09-26 (57 years ago)
Launch vehicle
Unknown
Launch site
Air Force Eastern Test Range (AFETR)
Object type
Payload
Rocket body
Debris
Shape & HBR
Unknown
Radar Cross Section
RCS unknown

Expand to show TLE details & history
Last TLE update: 5 months ago

TLE from 5 months ago
0 TITAN 3C TRANSTAGE DEB
1 39299U 68081AK  25096.15868785 -.00000243  00000-0  00000-0 0  9995
2 39299   1.3320 349.0057 0158466  49.9775 115.9486  1.00434381 62794
Epoch: 2025-04-06T03:48Z
TLE epoch observation values (Epoch: 2025-04-06T03:48:30.63Z)
Latitude
0.27413°
Longitude
-95.24384°
Altitude
36,044.107 km
Speed
3.054 km/s
True Right ascension
10h 26m 18s
True Declination
0° 16' 26"
Sunlit
Object was in daylight at epoch
Visualization orbit readout
Latitude
Unknown
Longitude
Unknown
Altitude
Unknown
Speed
Unknown
Apparent Right ascension
Unknown
Apparent Declination
Unknown
Sunlit
N/A
Visualization observer readout
Local Sidereal Time
09:04:56
Azimuth
Unknown
Elevation
Unknown
Doppler factor
Unknown
Orbital elements
Apogee altitude
36,409.609 km
Perigee altitude
35,074.683 km
Semi-major axis
42,120.283 km
Eccentricity
0.01585
Inclination
1.332°
RAAN
349.0057°
Arg. of periapsis
49.9775°
True anomaly
117.56717°
Mean anomaly
115.9486°
Eccentric anomaly
116.75931°
Mean motion
0.25108 °/min
Orbital period
1,433.83 mins
BSTAR
0
Loading maneuver chart data...
Computing Atmospheric mass density...

Documentation

Showing up to 5 results
|